Regional Weather Roundup
Issued by NWS Albany, NY

Home | Current Version | Previous Version | Graphics & Text | Print | Product List | Glossary Off
Versions: 1 2 3 4 5 6 7 8 9 10 11 12 13 14 15 16 17 18 19 20 21 22 23 24 25 26 27 28 29 30 31 32 33 34 35 36 37 38 39 40 41 42 43 44 45 46 47 48 49 50

850
ASUS41 KALY 070310
RWRALY

NEW YORK STATE HOURLY WEATHER ROUNDUP
NATIONAL WEATHER SERVICE ALBANY NY
1000 PM EST TUE DEC 06 2016

NOTE: "FAIR" INDICATES FEW OR NO CLOUDS BELOW 12,000 FEET WITH NO
SIGNIFICANT WEATHER AND/OR NO OBSTRUCTIONS TO VISIBILITY.

NYZ032-033-038>043-046>054-057>066-NYZ062>081-082-084-070400-
EAST


CITY           SKY/WX    TMP DP  RH WIND       PRES   REMARKS
ALBANY         CLOUDY    34  29  82 NE5       29.96F WCI  30
GLENS FALLS    CLOUDY    33  27  78 E3        29.97F
POUGHKEEPSIE   MIX PCPN  34  33  96 NE3       29.94F
NEWBURGH       LGT SNOW  34  34 100 E7        29.94F WCI  28
MONTGOMERY     LGT SNOW  33  32  96 N6        29.93F FOG     WCI  28
WHITE PLAINS   LGT RAIN  36  34  92 NE7       29.91F WCI  30
ISLIP          RAIN      41  39  93 NE8       29.93R
NEW YORK CITY  RAIN      43  38  82 E17       29.92F
CENTRAL PARK   LGT RAIN  40  36  86 NE12G22   29.93F FOG     WCI  33
$$

NYZ005>009-017-018-044>046-055-056-070400-
CENTRAL


CITY           SKY/WX    TMP DP  RH WIND       PRES   REMARKS
FULTON         LGT SNOW  34  32  92 CALM      29.87S FOG
SYRACUSE       LGT SNOW  33  33 100 E6        29.88R FOG     WCI  28
ROME           FLURRIES  35  31  85 SE6       29.90F WCI  30
ELMIRA         LGT SNOW  34  31  88 N6        29.84S FOG     WCI  29
BINGHAMTON     LGT SNOW  31  31 100 SE9       29.80F FOG     WCI  23
MONTICELLO     CLOUDY    32  30  93 E12       29.88F WCI  23
$$

NYZ026>034-041>043-087-070400-
NORTH


CITY           SKY/WX    TMP DP  RH WIND       PRES   REMARKS
WATERTOWN      CLOUDY    35  30  82 E5        29.88S WCI  31
FORT DRUM      NOT AVBL
OGDENSBURG     FAIR      32  29  90 E7        29.91F WCI  25
MASSENA        CLOUDY    30  24  78 E12       29.96F WCI  20
SARANAC LAKE   CLOUDY    26  23  88 NE6       29.86F WCI  19
PLATTSBURGH    MOCLDY    30  25  81 CALM      29.98F
$$

NYZ001>004-010>016-019>021-085-070400-
WEST


CITY           SKY/WX    TMP DP  RH WIND       PRES   REMARKS
NIAGARA FALLS  DRIZZLE   36  33  89 SE8       29.75S FOG     WCI  30
BUFFALO        DRIZZLE   35  33  92 SE7       29.75F FOG     WCI  29
DUNKIRK        CLOUDY    38  35  89 SW8       29.74F WCI  32
JAMESTOWN      CLOUDY    34  30  86 S8        29.73R WCI  27
WELLSVILLE     LGT SNOW  35  32  88 S9        29.76S FOG     WCI  28
ROCHESTER      LGT SNOW  34  32  92 SE9       29.80F FOG     WCI  27
PENN YAN       LGT SNOW  34  30  85 S6        29.82F FOG     WCI  29
$$

             KEY
       WCI = WIND CHILL INDEX
       VSB = VISIBILITY
       HX  = HEAT INDEX
$$




USA.gov is the U.S. government's official web portal to all federal, state and local government web resources and services.